Regional Weather Roundup
Issued by NWS

Home | Current Version | Previous Version | Text Only | Print | Product List | Glossary On
Versions: 1 2 3 4 5 6 7 8 9 10 11 12 13 14 15 16 17 18 19 20 21 22 23 24 25 26 27 28 29 30 31 32 33 34 35 36 37 38 39 40 41 42 43 44 45 46 47 48 49 50
000
ASUS43 KDTX 221410
RWRMI
MICHIGAN HOURLY REGIONAL WEATHER ROUNDUP
NATIONAL WEATHER SERVICE DETROIT/PONTIAC MI
ISSUED BY NATIONAL WEATHER SERVICE GRAND RAPIDS MI
900 AM EST WED FEB 22 2017

NOTE: "FAIR" INDICATES FEW OR NO CLOUDS BELOW 12,000 FEET WITH NO
SIGNIFICANT WEATHER AND/OR OBSTRUCTION TO VISIBILITY.

MIZ047>049-052>055-059>063-066>070-074>076-081>083-221500-
SOUTHEAST LOWER MICHIGAN

CITY           SKY/WX    TMP DP  RH WIND       PRES   REMARKS
ADRIAN         CLOUDY    50  50 100 SW5       29.87F FOG
ALMA           FOG       46  46  97 SW6       29.81S VSB<1/4
ANN ARBOR      PTSUNNY   50  50 100 S7        29.85F FOG
BAD AXE        CLOUDY    46  46 100 S3        29.83S FOG
DETROIT CITY   FAIR      52  50  93 SW9       29.86F FOG
DETROIT        FAIR      50  49  96 S9        29.87F FOG
FLINT          PTSUNNY   50  48  93 S6        29.84S FOG
GROSSE ILE     FOG       41  40  99 S3        29.86F VSB<1/4
HILLSDALE      FOG       50  50 100 SW6       29.85F VSB 3/4
HOWELL         PTSUNNY   51  48  90 SW6       29.83F FOG

CITY           SKY/WX    TMP DP  RH WIND       PRES   REMARKS
JACKSON        PTSUNNY   54  51  90 SW10      29.84F
LANSING        FAIR      51  48  89 S8        29.82F FOG
MASON          CLOUDY    51  51 100 SW5       29.83F FOG
MONROE         CLOUDY    47  47 100 CALM      29.86F FOG
MT. CLEMENS    MOSUNNY   41  41 100 CALM      29.83F FOG
PONTIAC        PTSUNNY   51  49  92 W8        29.83F FOG
PORT HOPE        N/A     47  45  93 SW7       29.80S
PORT HURON       N/A     46  46 100 S3        29.86R FOG
TRI CITIES     FOG       44  44 100 S5        29.82S VSB 3/4
YPSILANTI      FAIR      50  50 100 SW8       29.86F FOG
$$
MIZ043>046-050>051-056>058-064>065-071>073-077>080-221500-
SOUTHWEST LOWER MICHIGAN

CITY           SKY/WX    TMP DP  RH WIND       PRES   REMARKS
BATTLE CREEK   CLOUDY    51  50  96 S9        29.84S FOG
BENTON HARBOR  CLOUDY    54  50  86 S8        29.81F FOG
BIG RAPIDS     FOG       51  50  97 SW5       29.77F VSB 1/4
COLDWATER      CLOUDY    54  54 100 SW7       29.85S FOG
HOLLAND        CLOUDY    52  50  93 S8        29.80F FOG
GRAND RAPIDS   FOG       52  50  93 SW8       29.81S VSB 3/4
KALAMAZOO      CLOUDY    52  48  86 S8        29.84F FOG
MARSHALL       CLOUDY    53  52  97 SW8       29.84F FOG
MOUNT PLEASANT FOG       46  45  97 CALM      29.80R VSB<1/4
MUSKEGON       DRZL/FOG  51  51 100 SW15      29.79S VSB 1/8
STURGIS        CLOUDY    52  51  98 SW7       29.84F FOG
$$
MIZ016>042-221500-
NORTHERN LOWER MICHIGAN

CITY           SKY/WX    TMP DP  RH WIND       PRES   REMARKS
ALPENA         PTSUNNY   43  42  97 S6        29.76S
BEAVER ISLAND  FAIR      49  43  79 SW13      29.70R
BELLAIRE       CLOUDY    47  46  97 S5        29.72F FOG
CADILLAC       FOG       49  48  97 SW7       29.75F VSB 1/4
CHARLEVOIX     FAIR      47  46  96 S9        29.73S FOG
GAYLORD        FOG       46  43  89 SW9       29.73S VSB<1/4
HOUGHTON LAKE  FOG       47  46  97 S5        29.77S VSB 1/4
MANISTEE       CLOUDY    53  52  96 S9        29.73F FOG
OSCODA         FOG       43  42  97 SW5       29.79S VSB 1/4
PELLSTON       FAIR      48  40  73 S5        29.71F
TRAVERSE CITY  CLOUDY    52  49  89 S9        29.71F FOG
LUDINGTON      FOG       52  52 100 SW14      29.75S VSB 1
$$
MIZ007>008-015-221500-
EASTERN UPPER MICHIGAN

CITY           SKY/WX    TMP DP  RH WIND       PRES   REMARKS
KINROSS        FAIR      36  35  96 E6        29.71F WCI  31
MACKINAC ISLAN FAIR      43  37  78 S5        29.70S
NEWBERRY       FOG       36  35  96 SW9       29.68R VSB 1/4 WCI  29
S. S. MARIE    FOG       36  35  96 E7        29.71S VSB 3/4 WCI  30
$$
MIZ004>006-011>014-085-221500-
CENTRAL UPPER MICHIGAN

CITY           SKY/WX    TMP DP  RH WIND       PRES   REMARKS
MANISTIQUE     CLOUDY    37  36  97 S8        29.68S FOG     WCI  31
ESCANABA       FAIR      40  36  86 CALM      29.67S
MENOMINEE      FAIR      44  38  79 SW6       29.68S
SAWYER-GWINN   SUNNY     37  36  93 SE3       29.64F
$$
MIZ001>003-009>011-084-221500-
WESTERN UPPER MICHIGAN

CITY           SKY/WX    TMP DP  RH WIND       PRES   REMARKS
IRON MOUNTAIN  FAIR      33  30  88 CALM      29.64S
HOUGHTON       CLOUDY    38  32  79 SW3       29.61S
COPPER HARBOR    N/A     36  32  85 N7        29.61F WCI  30
IRONWOOD       FAIR      35  34  96 CALM      29.64S
$$

ABBREVIATIONS USED IN REMARKS
   TC - TEMPERATURE IN CELSIUS
  WCI - WIND CHILL INDEX
   HX - HEAT INDEX
  VSB - VISIBILITY





USA.gov is the U.S. government's official web portal to all federal, state and local government web resources and services.